Retour au catalogue

COSMOS 1341 DEB

LostHEO
NORAD 33530·DEBRIS·🇷🇺 Russia

Lancé Mar 3, 1982 depuis Plesetsk Cosmodrome

Loading…

Prochains Passages (prochaines 24 heures)

TLE

PériméSource: Space-Track

Époque: May 24, 2008, 04:31 UTC

1 33530U 82016F   08145.18825257  .00000182  00000-0  10000-3 0  9992
2 33530  65.9543  75.5281 6197605 152.4681 262.9749  1.99208402 13971

Suivez COSMOS 1341 DEB en temps réel avec AllMySat

Download on the App Store